• In Netherlands
  • List of Countries
  • For 7 days
  • Water Temperature
  • Satellite Maps
  • Weather Map
  • Weather Widgets
  • user-avatar
    Login

    Hourly Weather Bregenz

    Today, 25 March, Saturday

    Time Temperature Precipitation Wind Pressure Humidity
    00:00 +3°C° 0 mm 2 mps 649 mmHg 92%
    01:00 +2°C° 0 mm 2 mps 649 mmHg 92%
    02:00 +2°C° 0 mm 2 mps 649 mmHg 92%
    03:00 +2°C° 0 mm 2 mps 648 mmHg 91%
    04:00 +2°C° 0 mm 2 mps 648 mmHg 91%
    05:00 +2°C° 0 mm 2 mps 648 mmHg 90%
    06:00 +1°C° 0 mm 3 mps 648 mmHg 90%
    07:00 +1°C° 0 mm 3 mps 648 mmHg 89%
    08:00 +3°C° 0 mm 3 mps 648 mmHg 85%
    09:00 +5°C° 0 mm 3 mps 649 mmHg 81%
    10:00 +7°C° 0 mm 3 mps 649 mmHg 76%
    11:00 +9°C° 0 mm 3 mps 649 mmHg 73%
    12:00 +10°C° 0 mm 3 mps 649 mmHg 70%
    13:00 +11°C° 0 mm 4 mps 649 mmHg 67%
    14:00 +11°C° 0 mm 4 mps 648 mmHg 68%
    15:00 +10°C° 0 mm 4 mps 648 mmHg 69%
    16:00 +10°C° 0 mm 4 mps 647 mmHg 70%
    17:00 +7°C° 0 mm 4 mps 647 mmHg 77%
    18:00 +5°C° 0 mm 3 mps 646 mmHg 83%
    19:00 +3°C° 0 mm 3 mps 646 mmHg 90%
    20:00 +2°C° 0 mm 3 mps 646 mmHg 90%
    21:00 +3°C° 0 mm 2 mps 646 mmHg 90%
    22:00 +2°C° 0 mm 2 mps 646 mmHg 91%
    23:00 +1°C° 0 mm 2 mps 645 mmHg 91%

    Tomorrow, 26 March, Sunday

    Time Temperature Precipitation Wind Pressure Humidity
    00:00 +1°C° 0 mm 2 mps 645 mmHg 91%
    01:00 -1°C° 0 mm 2 mps 645 mmHg 91%
    02:00 +1°C° 0 mm 1 mps 645 mmHg 92%
    03:00 +1°C° 0 mm 1 mps 645 mmHg 93%
    04:00 0°C° 0 mm 1 mps 645 mmHg 93%
    05:00 +1°C° 0 mm 1 mps 645 mmHg 93%
    06:00 +1°C° 0 mm 1 mps 645 mmHg 92%
    07:00 +1°C° 0 mm 1 mps 645 mmHg 92%
    08:00 +2°C° 0 mm 1 mps 646 mmHg 90%
    09:00 +4°C° 0 mm 1 mps 646 mmHg 88%
    10:00 +5°C° 0 mm 1 mps 647 mmHg 86%
    11:00 +5°C° 0 mm 1 mps 647 mmHg 84%
    12:00 +6°C° 0 mm 1 mps 647 mmHg 82%
    13:00 +6°C° 0 mm 1 mps 646 mmHg 80%
    14:00 +6°C° 0 mm 1 mps 646 mmHg 82%
    15:00 +5°C° 0 mm 2 mps 646 mmHg 83%
    16:00 +5°C° 0 mm 2 mps 646 mmHg 84%
    17:00 +5°C° 0 mm 1 mps 646 mmHg 88%
    18:00 +4°C° 0 mm 1 mps 646 mmHg 92%
    19:00 +3°C° 0 mm 1 mps 646 mmHg 95%
    20:00 +3°C° 0 mm 1 mps 646 mmHg 96%
    21:00 +2°C° 0 mm 1 mps 646 mmHg 96%
    22:00 +2°C° 0 mm 1 mps 647 mmHg 96%
    23:00 +1°C° 0 mm 1 mps 647 mmHg 96%

    Day after tomorrow, 27 March, Monday

    Time Temperature Precipitation Wind Pressure Humidity
    00:00 +1°C° 0 mm 1 mps 646 mmHg 95%
    01:00 -2°C° 0 mm 2 mps 646 mmHg 95%
    02:00 -2°C° 0 mm 2 mps 646 mmHg 94%
    03:00 -2°C° 0 mm 2 mps 646 mmHg 92%
    04:00 -2°C° 0 mm 2 mps 646 mmHg 91%
    05:00 -2°C° 0 mm 2 mps 646 mmHg 90%
    06:00 -2°C° 0 mm 2 mps 646 mmHg 90%
    07:00 -1°C° 0 mm 2 mps 646 mmHg 89%
    08:00 +3°C° 0 mm 1 mps 647 mmHg 82%
    09:00 +6°C° 0 mm 1 mps 648 mmHg 74%
    10:00 +8°C° 0 mm 1 mps 648 mmHg 67%
    11:00 +9°C° 0 mm 1 mps 649 mmHg 64%
    12:00 +10°C° 0 mm 1 mps 649 mmHg 62%
    13:00 +10°C° 0 mm 2 mps 649 mmHg 59%
    14:00 +10°C° 0 mm 2 mps 649 mmHg 62%
    15:00 +10°C° 0 mm 2 mps 649 mmHg 65%
    16:00 +10°C° 0 mm 2 mps 649 mmHg 67%
    17:00 +8°C° 0 mm 1 mps 648 mmHg 76%
    18:00 +5°C° 0 mm 1 mps 648 mmHg 85%
    19:00 +3°C° 0 mm 1 mps 647 mmHg 94%
    20:00 +2°C° 0 mm 1 mps 647 mmHg 95%
    21:00 0°C° 0 mm 0 mps 648 mmHg 95%
    22:00 0°C° 0 mm 0 mps 648 mmHg 96%
    23:00 -1°C° 0 mm 0 mps 648 mmHg 96%

    28 March, Tuesday

    Time Temperature Precipitation Wind Pressure Humidity
    00:00 -1°C° 0 mm 0 mps 648 mmHg 95%
    01:00 -1°C° 0 mm 0 mps 648 mmHg 95%
    02:00 -1°C° 0 mm 0 mps 648 mmHg 95%
    03:00 -1°C° 0 mm 0 mps 648 mmHg 95%
    04:00 -1°C° 0 mm 0 mps 648 mmHg 95%
    05:00 0°C° 0 mm 0 mps 648 mmHg 94%
    06:00 0°C° 0 mm 0 mps 649 mmHg 94%
    07:00 +1°C° 0 mm 0 mps 649 mmHg 93%
    08:00 +4°C° 0 mm 0 mps 650 mmHg 82%
    09:00 +7°C° 0 mm 0 mps 651 mmHg 72%
    10:00 +10°C° 0 mm 0 mps 652 mmHg 61%
    11:00 +11°C° 0 mm 1 mps 652 mmHg 60%
    12:00 +12°C° 0 mm 1 mps 652 mmHg 58%
    13:00 +13°C° 0 mm 1 mps 652 mmHg 57%
    14:00 +12°C° 0 mm 1 mps 652 mmHg 60%
    15:00 +12°C° 0 mm 1 mps 652 mmHg 62%
    16:00 +11°C° 0 mm 1 mps 651 mmHg 65%
    17:00 +9°C° 0 mm 1 mps 651 mmHg 74%
    18:00 +6°C° 0 mm 1 mps 650 mmHg 83%
    19:00 +3°C° 0 mm 1 mps 650 mmHg 92%
    20:00 +2°C° 0 mm 0 mps 650 mmHg 93%
    21:00 +1°C° 0 mm 0 mps 650 mmHg 93%
    22:00 +1°C° 0 mm 0 mps 650 mmHg 94%
    23:00 0°C° 0 mm 0 mps 650 mmHg 94%

    29 March, Wednesday

    Time Temperature Precipitation Wind Pressure Humidity
    00:00 0°C° 0 mm 0 mps 650 mmHg 95%
    01:00 0°C° 0 mm 0 mps 650 mmHg 95%
    02:00 0°C° 0 mm 0 mps 650 mmHg 95%
    03:00 0°C° 0 mm 0 mps 650 mmHg 95%
    04:00 0°C° 0 mm 0 mps 650 mmHg 95%
    05:00 +1°C° 0 mm 0 mps 651 mmHg 95%
    06:00 +1°C° 0 mm 0 mps 651 mmHg 95%
    07:00 +2°C° 0 mm 0 mps 652 mmHg 94%
    08:00 +5°C° 0 mm 0 mps 652 mmHg 86%
    09:00 +7°C° 0 mm 0 mps 653 mmHg 78%
    10:00 +9°C° 0 mm 0 mps 654 mmHg 70%
    11:00 +11°C° 0 mm 1 mps 654 mmHg 67%
    12:00 +12°C° 0 mm 1 mps 654 mmHg 64%
    13:00 +13°C° 0 mm 1 mps 654 mmHg 61%
    14:00 +13°C° 0.2 mm 1 mps 653 mmHg 64%
    15:00 +12°C° 0.2 mm 1 mps 653 mmHg 66%
    16:00 +12°C° 0.2 mm 1 mps 653 mmHg 69%
    17:00 +9°C° 0.2 mm 1 mps 652 mmHg 77%
    18:00 +7°C° 0.2 mm 1 mps 652 mmHg 86%
    19:00 +4°C° 0.2 mm 1 mps 651 mmHg 94%
    20:00 +3°C° 0 mm 1 mps 651 mmHg 95%
    21:00 +3°C° 0 mm 1 mps 651 mmHg 95%
    22:00 +2°C° 0 mm 1 mps 651 mmHg 95%
    23:00 +2°C° 0 mm 1 mps 651 mmHg 95%

    30 March, Thursday

    Time Temperature Precipitation Wind Pressure Humidity
    00:00 +2°C° 0 mm 1 mps 651 mmHg 95%
    01:00 +2°C° 0 mm 1 mps 651 mmHg 95%
    02:00 +2°C° 0 mm 1 mps 651 mmHg 94%
    03:00 +1°C° 0 mm 1 mps 651 mmHg 94%
    04:00 +1°C° 0 mm 1 mps 651 mmHg 94%
    05:00 +2°C° 0 mm 1 mps 651 mmHg 92%
    06:00 +3°C° 0 mm 1 mps 651 mmHg 91%
    07:00 +3°C° 0 mm 1 mps 651 mmHg 89%
    08:00 +6°C° 0 mm 1 mps 652 mmHg 80%
    09:00 +9°C° 0 mm 1 mps 653 mmHg 71%
    10:00 +11°C° 0 mm 0 mps 654 mmHg 62%
    11:00 +13°C° 0 mm 1 mps 654 mmHg 58%
    12:00 +14°C° 0 mm 1 mps 654 mmHg 54%
    13:00 +15°C° 0 mm 1 mps 653 mmHg 50%
    14:00 +15°C° 0 mm 1 mps 653 mmHg 52%
    15:00 +14°C° 0 mm 1 mps 653 mmHg 54%
    16:00 +14°C° 0 mm 1 mps 652 mmHg 56%
    17:00 +11°C° 0 mm 1 mps 651 mmHg 68%
    18:00 +8°C° 0 mm 1 mps 650 mmHg 79%
    19:00 +4°C° 0 mm 1 mps 649 mmHg 91%
    20:00 +4°C° 0 mm 1 mps 650 mmHg 89%
    21:00 +4°C° 0 mm 1 mps 650 mmHg 87%
    22:00 +3°C° 0 mm 2 mps 650 mmHg 86%
    23:00 +2°C° 0 mm 2 mps 650 mmHg 85%
    Show more